星链-5161 (STARLINK-5161 )

导读 | 豆包AI

STARLINK-5161是美国太空探索技术公司(SpaceX)于2022年10月28日发射的星链(Starlink)低轨通信卫星,属于Starlink V1.0平台,运行于近地轨道,轨道倾角约43度。作为星链全球卫星互联网项目的组成部分,它搭载Ku/Ka波段通信载荷,配备氪工质霍尔推进器,具备自主避撞能力,旨在为全球提供高速低延迟宽带服务,寿命末期会再入大气层销毁。

基本信息
目录编号:
54163
目录名称:
STARLINK-5161
国际标识:
2022-141G
轨道中心:
EARTH
卫星名称:
星链-5161
卫星全名:
星链-5161 (STARLINK-5161 )
卫星状态:
在轨 (已飞行1280 天)
发射日期:
2022-10-28 UTC
国别 :
美国 (US)
星等 :
--
轨道信息
数据来源 国际轨道数据
星历时间: 2026-04-30T13:08:15+0800
10小时前
查看轨道信息
半长轴: 6917.893km
偏心率: 0.0001203
轨道倾角: 53.217°
近地点辐角 76.075°
升交点赤经 132.987°
平近点角 284.038°
近地点: 538.923km
远地点: 540.589km
周期: 95.438分钟
每日圈数: 15.088362
详细信息
固有亮度:
5
最大亮度:
2.5
卫星平台:
Starlink v1.5
覆盖范围:
全球
运营商:
太空探索技术公司
运营商所在国:
美国
制造商(研发单位):
太空探索技术公司
制造商所在国:
美国
使用方式:
暂无
卫星简介
星链(Starlink)计划是由太空探索技术公司(SpaceX)提出的一个巨型低轨卫星互联网星座项目,计划在2019年至2024年间在太空搭建由约1.2万颗卫星组成的“星链”网络,其中1584颗将部署在地球上空550千米处的近地轨道,并从2020年开始工作。该卫星仍在工作。
2D轨道图
3D轨道图
轨道高度分析图
轨道倾角分析图
轨道综合分析图
查看轨道综合分析图